Content
SEND FEEDBACK

Daily
Averages
Monthly
Summary
United States of America

KULANI, HAWAII


Home > North America > United States > Hawaii
Elevation: 5750 feet     Latitude: 19 35N     Longitude: 155 20W

WEATHER
 
SELECT A DAY
Number of Records: 230,277;   Date Range: 1/1/95 - 9/20/14
 
SHARE

PRINT THIS DATA

[ ← Previous Day ]
WEATHER ALMANAC - JANUARY 31, 2013
[ Next Day → ]
[ °C ]   °F
Weather ElementAverageHighLow
Temperature59.1 °F78.1 °F (3:53 pm) (9:20 pm)
Dewpoint53.5 °F66.9 °F (10:53 am) (7:00 pm)
Humidity79.7 %93 % (2:53 am)64 % (12:53 pm)
Barometer30.06 in30.11 in (9:53 pm)30.01 in (3:53 am)
Wind Speed4.8 mph8.1 mph (1:53 pm)
Weather ElementAverage
Visibility9.6 mi
Wind DirectionS (184.8 °)

Weather ElementTotal
Precipitation0.08 in
Heating Degree Days26 (Base 65)
Averaged from 33 records on January 31, 2013
WEATHER CONDITIONS BREAKOUT
WIND DIRECTION BREAKOUT
WEATHER BY HOUR - JANUARY 31, 2013
[ °C ]   °F
Local TimeTemperatureDewpointHumidityBarometerVisibilityWind DirectionWind SpeedGust SpeedPrecipitationEventsConditions
1:53 AM69.1 °F66.0 °F90 %30.03 in10.0 miCalmOvercast
2:53 AM68.0 °F66.0 °F93 %30.02 in10.0 miCalmMostly Cloudy
3:53 AM68.0 °F64.9 °F90 %30.01 in10.0 miSW (230°)3.5 mphOvercast
4:46 AM68.0 °F64.9 °F90 %30.02 in10.0 miCalmOvercast
4:53 AM68.0 °F64.9 °F90 %30.02 in10.0 miCalmOvercast
5:15 AM68.0 °F64.9 °F90 %30.03 in10.0 miCalmOvercast
5:53 AM69.1 °F66.0 °F90 %30.04 in10.0 miSE (140°)3.5 mphOvercast
6:19 AM69.1 °F64.9 °F87 %30.04 in10.0 miSW (230°)4.6 mphOvercast
6:53 AM69.1 °F64.9 °F87 %30.05 in10.0 miWest (280°)3.5 mphOvercast
7:53 AM69.1 °F66.0 °F90 %30.06 in10.0 miWSW (250°)4.6 mph0.00 inOvercast
8:53 AM72.0 °F64.9 °F78 %30.07 in10.0 miWSW (250°)3.5 mphOvercast
9:53 AM75.0 °F64.9 °F71 %30.09 in10.0 miEast (90°)4.6 mphMostly Cloudy
10:53 AM73.9 °F66.9 °F79 %30.08 in10.0 miSouth (190°)3.5 mph0.00 inOvercast
11:53 AM75.0 °F66.0 °F73 %30.06 in10.0 miNorth (350°)5.8 mphMostly Cloudy
12:53 PM77.0 °F64.0 °F64 %30.04 in10.0 miNorth (360°)4.6 mphMostly Cloudy
1:53 PM77.0 °F64.9 °F66 %30.03 in10.0 miNNE (30°)8.1 mphMostly Cloudy
2:53 PM77.0 °F64.9 °F66 %30.02 in10.0 miNorth (10°)6.9 mphMostly Cloudy
3:53 PM78.1 °F66.0 °F66 %30.02 in10.0 miNorth (350°)5.8 mphMostly Cloudy
4:19 PM75.0 °F66.9 °F76 %30.03 in10.0 miNNE (30°)6.9 mph0.00 inRainLight Rain
4:53 PM73.9 °F66.0 °F76 %30.03 in10.0 miNE (40°)8.1 mph0.00 inOvercast
5:11 PM75.0 °F66.0 °F73 %30.04 in10.0 miNNE (30°)6.9 mphOvercast
5:53 PM73.0 °F64.9 °F76 %30.04 in10.0 miNNE (20°)5.8 mphMostly Cloudy
6:53 PM73.0 °F64.0 °F73 %30.06 in10.0 miNorth (10°)5.8 mphClear
7:34 PM73.0 °F66.0 °F79 %30.08 in10.0 miNW (320°)6.9 mphMostly Cloudy
7:53 PM72.0 °F66.0 °F81 %30.08 in10.0 miNNW (330°)6.9 mphOvercast
8:41 PM72.0 °F64.9 °F78 %30.10 in10.0 miNW (310°)6.9 mphMostly Cloudy
8:53 PM72.0 °F66.0 °F81 %30.10 in10.0 miNW (320°)8.1 mphMostly Cloudy
9:20 PM0.0 °F0.0 °F30.10 in10.0 miWNW (300°)5.8 mphMostly Cloudy
9:53 PM0.0 °F0.0 °F30.11 in10.0 miWNW (290°)4.6 mphOvercast
10:45 PM0.0 °F0.0 °F30.11 in10.0 miNW (320°)5.8 mph0.02 inOvercast
10:53 PM0.0 °F0.0 °F30.11 in10.0 miNW (310°)5.8 mph0.02 inOvercast
11:53 PM0.0 °F0.0 °F30.10 in3.0 miNorth (350°)6.9 mph0.00 inRainHeavy Rain
11:58 PM0.0 °F0.0 °F30.09 in2.5 miNorth (360°)5.8 mph0.04 inRainRain
Hourly data recorded from PHTO, located miles away from Kulani, Hawaii







STORIES FROM OUR PARTNERS